Location: Nelson
(41.2830°S, 173.2830°E)
Time: 12:58:29
(UTC+13:00)

Radarsat Rocket - Pass Details

Date: 03 October 2021
Orbit: 933 x 1492 km, 100.6° (Epoch: 27 October)

Event Time Altitude Azimuth Distance (km) Brightness Sun altitude
Rises 05:34:55 0° 52° (NE) 4,616 8.0 -16.0°
Reaches altitude 10° 05:38:05 10° 61° (ENE) 3,642 7.5 -15.5°
Maximum altitude 05:45:30 34° 120° (ESE) 2,250 6.6 -14.1°
Drops below altitude 10° 05:52:36 10° 179° (S) 3,490 7.1 -12.9°
Sets 05:55:34 0° 188° (S) 4,402 7.5 -12.3°
